User: anonymous   Login
Location: Codford Saint Peter
(51.1597°N, 2.0531°W)
Time: 05:01:50
(UTC+00:00)
Language:

Cosmos 2297 Rocket - Orbit

View from above orbital plane
View from above orbital plane
View from above satellite
View from above satellite

Ground track
Ground track

The orbit data is extracted from the following two-line orbital elements,

1 23405U 94077B   20337.56578450 -.00000276  00000-0 -11738-3 0  9996
2 23405  70.9840  76.9881 0004296 236.3273 123.7441 14.15225458344134
Epoch (UTC): 02 December 2020 13:34:43
Eccentricity: 0.0004296
inclination: 70.9840°
perigee height: 838 km
apogee height: 844 km
right ascension of ascending node: 76.9881°
argument of perigee: 236.3273°
revolutions per day: 14.15225458
mean anomaly at epoch: 123.7441°
orbit number at epoch: 34413

The dashed part of the orbit path shows where the satellite is in the earth's shadow,  

DLR